DMSP 5D-2 F13 DEB, 40509

Orbit data source: Space-Track

DMSP 5D-2 F13 DEB, 40509 is space debris in SSO originally from a launch on Fri, 24 Mar 1995 UTC launched from the Air Force Western Test Range (AFWTR). Debris objects in space refer to the collection of defunct objects orbiting the Earth. Examples of debris include non-operational satellites, rocket bodies, and fragments generated from explosions, collisions, or faulty payload assembly.

Loading next visibility...
Identifier
40509, 1995-015CV
Orbit
SSO
Country
Flag of USUS
Related business
Manufacturer
Unknown
Mission
Spacecraft
Bus & Motor
Unknown
Mass
Unknown
Launch date (UTC)
1995-03-24 (31 years ago)
Launch vehicle
Unknown
Launch site
Air Force Western Test Range (AFWTR)
Object type
Payload
Rocket body
Debris
Shape & HBR
Unknown shape, 0.1 m
Radar Cross Section
Small (<0.1 m²)

Expand to show TLE details & history
Last TLE update: 21 hours ago

TLE from 21 hours ago
0 DMSP 5D-2 F13 DEB
1 40509U 95015CV  26034.97182305  .00000549  00000-0  26353-3 0  9998
2 40509  98.6547  53.5614 0023188   4.9758 355.1646 14.22757669563708
Epoch: 2026-02-03T23:19Z
TLE epoch observation values (Epoch: 2026-02-03T23:19:25.511Z)
Latitude
-0.00007°
Longitude
-70.43998°
Altitude
802.336 km
Speed
7.461 km/s
True Right ascension
03h 34m 14s
True Declination
0° 00' 00"
Sunlit
Object was in daylight at epoch
Visualization orbit readout
Latitude
Unknown
Longitude
Unknown
Altitude
Unknown
Speed
Unknown
Apparent Right ascension
Unknown
Apparent Declination
Unknown
Sunlit
N/A
Visualization observer readout
Local Sidereal Time
22:30:59
Azimuth
Unknown
Elevation
Unknown
Doppler factor
Unknown
Orbital elements
Apogee altitude
829.869 km
Perigee altitude
796.519 km
Semi-major axis
7,191.331 km
Eccentricity
0.00232
Inclination
98.6547°
RAAN
53.5614°
Arg. of periapsis
4.9758°
True anomaly
355.14214°
Mean anomaly
355.1646°
Eccentric anomaly
355.15338°
Mean motion
3.55901 °/min
Orbital period
101.15 mins
BSTAR
0.00026353
Loading maneuver chart data...
Computing Atmospheric mass density...

Documentation

Showing up to 5 results
|